sat.trackr.live / text

‹ back to catalog

STARLINK-31610

NORAD 59473 · 2024-068U

PAYLOAD ACTIVE UNKNOWN

§ Identity

Operator
Country
US
Launch date
2024-04-10
Launch site
AFETR
Launch vehicle
Mass (kg)
RCS (m²)

Purposes: comms

External: N2YO · Heavens-Above · Gunter

§ Orbital elements

Epoch: 2026-09-21T07:38:35.080512Z

Period
94.27 min
Inclination
43.0006°
Eccentricity
0.0001602
Mean motion
15.27597798 rev/d
Perigee alt
481.9 km
Apogee alt
484.1 km
Semi-major
6,861.1 km
B*
-1.4738e-4
RAAN
9.5311°
Arg perigee
291.8389°
Mean anomaly
68.2292°
Rev number
13,844

§ Raw data

STARLINK-316101 59473U 24068U   26264.31846158 -.00004318  00000+0 -14738-3 0  99972 59473  43.0006   9.5311 0001602 291.8389  68.2292 15.27597798138440

JSON: /api/v1/satellites/59473 · /tle

For live sub-satellite position, see the globe view (requires WebGL).

§ Visibility from observer

Set your observer location to see the next 7 days of passes ≥ 10°. The values pass through the URL so the page stays shareable.

No JS? Fill the form by hand. The geolocation button needs JavaScript.